Tracking 27086 objects as of 22-Mar-2023
HD Live streaming from Space Station
objects crossing your sky now

COSMOS 1275 DEB

Track COSMOS 1275 DEB now!
10-day predictions


NORAD ID: 13471
Int'l Code: 1981-053FT
Perigee: 874.1 km
Apogee: 952.6 km
Inclination: 82.8 °
Period: 103.1 minutes
Semi major axis: 7284 km
RCS: 0.0585 m2 (small)
Launch date: June 4, 1981
Source: Commonwealth of Independent States (former USSR) (CIS)
Launch site: PLESETSK MISSILE AND SPACE COMPLEX (PKMTR)

Note: This is SATELLITE DEBRIS
Your satellite tracking list
Your tracking list is empty




NASA's NSSDC Master Catalog

Two Line Element Set (TLE):
1 13471U 81053FT  23080.68952049  .00002427  00000-0  17271-2 0  9994
2 13471  82.8121  38.5754 0053908 140.3812 275.2641 13.96414705 61965
Source of the keplerian elements: AFSPC